TimePST,TemperatureF,Dew PointF,Humidity,Sea Level PressureIn,VisibilityMPH,Wind Direction,Wind SpeedMPH,Gust SpeedMPH,PrecipitationIn,Events,Conditions,WindDirDegrees,DateUTC
12:55 AM,54.0,50.0,86,30.12,5.0,ENE,4.6,-,N/A,,Clear,60,2012-11-28 08:55:00
1:55 AM,52.0,48.9,89,30.16,4.0,WNW,4.6,-,N/A,,Mostly Cloudy,290,2012-11-28 09:55:00
2:09 AM,53.6,48.2,82,30.13,4.0,WNW,3.5,-,N/A,,Mostly Cloudy,290,2012-11-28 10:09:00
2:55 AM,55.0,51.1,86,30.15,6.0,North,3.5,-,N/A,,Mostly Cloudy,350,2012-11-28 10:55:00
3:55 AM,54.0,50.0,86,30.13,5.0,ENE,5.8,-,N/A,,Mostly Cloudy,70,2012-11-28 11:55:00
4:55 AM,55.9,51.1,84,30.14,5.0,NE,5.8,-,N/A,,Haze,50,2012-11-28 12:55:00
5:55 AM,57.0,51.1,81,30.15,5.0,NNE,3.5,-,N/A,,Haze,30,2012-11-28 13:55:00
6:55 AM,55.9,51.1,84,30.19,4.0,Calm,Calm,-,N/A,,Haze,0,2012-11-28 14:55:00
7:55 AM,57.9,52.0,81,30.21,4.0,Calm,Calm,-,N/A,,Haze,0,2012-11-28 15:55:00
8:39 AM,60.8,51.8,72,30.16,5.0,ENE,10.4,-,N/A,,Haze,70,2012-11-28 16:39:00
8:55 AM,62.1,51.1,67,30.19,5.0,ENE,12.7,-,N/A,,Haze,70,2012-11-28 16:55:00
9:55 AM,64.9,50.0,58,30.21,7.0,ENE,8.1,-,N/A,,Clear,60,2012-11-28 17:55:00
10:55 AM,66.9,48.9,52,30.18,10.0,ENE,9.2,-,N/A,,Clear,60,2012-11-28 18:55:00
11:55 AM,66.9,50.0,54,30.17,10.0,WSW,4.6,-,N/A,,Clear,240,2012-11-28 19:55:00
12:55 PM,64.0,52.0,65,30.14,10.0,SE,5.8,-,N/A,,Overcast,140,2012-11-28 20:55:00
1:55 PM,64.0,54.0,70,30.14,10.0,WSW,5.8,-,0.00,,Overcast,240,2012-11-28 21:55:00
2:55 PM,63.0,54.0,72,30.15,9.0,Calm,Calm,-,0.00,Rain,Light Rain,0,2012-11-28 22:55:00
3:11 PM,62.6,53.6,72,30.13,3.0,Calm,Calm,-,0.01,Rain,Light Rain,0,2012-11-28 23:11:00
3:14 PM,62.6,53.6,72,30.13,3.0,NNW,9.2,-,0.01,Rain,Light Rain,340,2012-11-28 23:14:00
3:45 PM,60.8,55.4,82,30.13,2.0,North,5.8,-,0.01,Rain,Light Rain,10,2012-11-28 23:45:00
3:55 PM,60.1,55.0,83,30.16,2.5,North,3.5,-,0.02,Rain,Light Rain,360,2012-11-28 23:55:00
4:55 PM,59.0,55.0,87,30.17,2.5,ENE,5.8,-,0.00,Rain,Light Rain,60,2012-11-29 00:55:00
5:55 PM,59.0,55.9,90,30.17,2.5,ENE,5.8,-,0.02,Rain,Light Rain,70,2012-11-29 01:55:00
6:55 PM,60.1,55.9,86,30.18,3.0,ENE,9.2,-,0.00,,Overcast,60,2012-11-29 02:55:00
7:55 PM,60.1,55.9,86,30.19,3.0,NE,9.2,-,0.01,Rain,Light Rain,50,2012-11-29 03:55:00
8:55 PM,59.0,55.9,90,30.20,4.0,ENE,10.4,-,0.00,Rain,Light Rain,60,2012-11-29 04:55:00
9:55 PM,59.0,55.9,90,30.19,3.0,NE,6.9,-,0.02,,Overcast,50,2012-11-29 05:55:00
10:29 PM,59.0,55.4,88,30.17,4.0,NE,5.8,-,0.00,Rain,Light Rain,40,2012-11-29 06:29:00
10:55 PM,60.1,55.9,86,30.19,7.0,NE,5.8,-,0.00,,Overcast,40,2012-11-29 06:55:00
11:55 PM,60.1,57.0,90,30.19,10.0,Calm,Calm,-,0.02,,Overcast,0,2012-11-29 07:55:00